CZ-6A DEB, 55237

Orbit data source: Space-Track

CZ-6A DEB, 55237 is space debris in SSO originally from a launch on Fri, 11 Nov 2022 UTC launched from the Taiyaun Space Center, China (TSC). Debris objects in space refer to the collection of defunct objects orbiting the Earth. Examples of debris include non-operational satellites, rocket bodies, and fragments generated from explosions, collisions, or faulty payload assembly.

Loading next visibility...
Identifier
55237, 2022-151XE
Orbit
SSO
Country
Flag of CNCN / PRC
Related business
Manufacturer
SAST
Mission
Spacecraft
Bus & Motor
Unknown
Mass
Unknown
Launch date (UTC)
2022-11-11 (4 years ago)
Launch vehicle
Unknown
Launch site
Taiyaun Space Center, China (TSC)
Object type
Payload
Rocket body
Debris
Shape & HBR
Unknown shape, 0.1 m
Radar Cross Section
Medium (>0.1 m² and <1 m²)

Expand to show TLE details & history
Last TLE update: 22 hours ago

TLE from 22 hours ago
0 CZ-6A DEB
1 55237U 22151XE  26206.19911804  .00003864  00000-0  76765-3 0  9997
2 55237  98.7625 300.5296 0105293 143.2957 217.5513 14.59302795194820
Epoch: 2026-07-25T04:46Z
TLE epoch observation values (Epoch: 2026-07-25T04:46:43.798Z)
Latitude
-0°
Longitude
-74.06772°
Altitude
757.741 km
Speed
7.444 km/s
True Right ascension
20h 02m 07s
True Declination
0° 00' 00"
Sunlit
Object was in full shadow at epoch
Visualization orbit readout
Latitude
Unknown
Longitude
Unknown
Altitude
Unknown
Speed
Unknown
Apparent Right ascension
Unknown
Apparent Declination
Unknown
Sunlit
N/A
Visualization observer readout
Local Sidereal Time
16:10:43
Azimuth
Unknown
Elevation
Unknown
Doppler factor
Unknown
Orbital elements
Apogee altitude
766.984 km
Perigee altitude
618.085 km
Semi-major axis
7,070.671 km
Eccentricity
0.01053
Inclination
98.7625°
RAAN
300.5296°
Arg. of periapsis
143.2957°
True anomaly
216.82355°
Mean anomaly
217.5513°
Eccentric anomaly
217.18667°
Mean motion
3.6505 °/min
Orbital period
98.62 mins
BSTAR
0.00076765
Loading maneuver chart data...
Computing Atmospheric mass density...
Loading historical data...
Loading historical data...
Loading historical data...
Loading historical data...
Loading historical data...
Loading historical data...
Loading historical data...

Documentation

Showing up to 5 results
|